Weather Roundup
Issued by NWS Chicago, IL

Home | Current Version | Previous Version | Graphics & Text | Print | Product List | Glossary Off
Versions: 1 2 3 4 5 6 7 8 9 10 11 12 13 14 15 16 17 18 19 20 21 22 23 24 25 26 27 28 29 30 31 32 33 34 35 36 37 38 39 40 41 42 43 44 45 46 47 48 49 50

000
NZUS59 KLOT 270509
HRRLOT

CHICAGO AREA WEATHER ROUNDUP
NATIONAL WEATHER SERVICE CHICAGO/ROMEOVILLE IL
1200 AM CDT FRI MAY 27 2016

NOTE: "FAIR" INDICATES FEW OR NO CLOUDS BELOW 12,000 FEET WITH NO
SIGNIFICANT WEATHER AND/OR OBSTRUCTIONS TO VISIBILITY.

* THESE STATIONS ARE NOT UNDER NWS QUALITY CONTROL. THEY ALSO MAY NOT
  REPORT WEATHER SUCH AS PRECIPITATION OR FOG.

ILZ005-006-012>014-019>023-270600-
NORTHEAST ILLINOIS

CITY           SKY/WX    TMP DP  RH WIND       PRES   REMARKS
OHARE          CLOUDY    75  65  70 S10       29.87F
MIDWAY         CLOUDY    76  66  71 S13       29.89F
AURORA         CLOUDY    74  66  76 S6        29.89S
LANSING*       MOCLDY    71  65  81 S12       29.92S
JOLIET*        CLOUDY    75  69  81 S7        29.89F
WAUKEGAN       MOCLDY    64  61  90 CALM      29.87F
DUPAGE AIRPORT CLOUDY    73  64  73 S10       29.88F
WHEELING       CLOUDY    72  63  73 S3        29.88F
KANKAKEE*      PTCLDY    69  65  86 S12       29.92F
MORRIS*        CLOUDY    75  67  76 S6        29.88F
LEWIS AIRPORT* MOCLDY    73  66  77 S10       29.89F
$$

WIZ051-052-058>065-066-070>072-270600-
SOUTHEAST WISCONSIN

CITY           SKY/WX    TMP DP  RH WIND       PRES   REMARKS
MILWAUKEE      MOCLDY    67  60  78 CALM      29.87F
KENOSHA*       PTCLDY    68  63  84 CALM      29.88S
RACINE*        CLOUDY    68  59  73 S6        29.89F
BURLINGTON     PTCLDY    63  61  93 CALM      29.88F
WAUKESHA       PTCLDY    63  55  77 CALM      29.90R
WEST BEND      PTCLDY    61  59  94 CALM      29.88S
$$

INZ001>003-010>013-019-020-270600-
NORTHWEST INDIANA

CITY           SKY/WX    TMP DP  RH WIND       PRES   REMARKS
GARY*          MOCLDY    74  72  93 S8G16     29.91F
MICHIGAN CITY* NOT AVBL
RENSSELAER*    NOT AVBL
VALPARAISO     CLOUDY    71  64  78 SW9       29.93F
$$

LMZ740>746-270600-
SOUTHERN LAKE MICHIGAN

STATION/POSITION TIME  SKY/WX   TEMP WIND        PRES    VSBY
                                AIR  DIR/SP/G
                 (UTC)          (F)  (DEG/KT/KT) (MB)    (MI)
HARRISON CRIB    0400            72  190/ 12/ 13   N/A
BURNHAM HARBOR   0500            75  200/ 11/ 14   N/A
CALUMET HARBOR   0400            76  170/ 10/ 14 1012.3R
BURNS HARBOR     0400            73  190/ 14/ 23 1013.5R
MICHIGAN CITY    0400            74  170/ 12/ 14   N/A
$$

ABBREVIATIONS USED IN REMARKS
   TC - TEMPERATURE IN CELSIUS
  WCI - WIND CHILL INDEX
   HX - HEAT INDEX
  VSB - VISIBILITY
$$




USA.gov is the U.S. government's official web portal to all federal, state and local government web resources and services.